Regional Weather Roundup
Issued by NWS Sioux Falls, SD

Home | Current Version | Previous Version | Text Only | Print | Product List | Glossary On
Versions: 1 2 3 4 5 6 7 8 9 10 11 12 13 14 15 16 17 18 19 20 21 22 23 24 25 26 27 28 29 30 31 32 33 34 35 36 37 38 39 40 41 42 43 44 45 46 47 48 49 50
749
ASUS43 KFSD 061702
RWRFSD

WEATHER ROUNDUP FOR SE SOUTH DAKOTA/SW MINNESOTA/NW IOWA
NATIONAL WEATHER SERVICE SIOUX FALLS SD
1200 PM CDT FRI MAY 06 2016

NOTE: "FAIR" INDICATES FEW OR NO CLOUDS BELOW 12,000 FEET WITH NO
SIGNIFICANT WEATHER AND OR OBSTRUCTIONS TO VISIBILITY.


SDZ038>040-050-052>070-061800-
SOUTHEAST SOUTH DAKOTA

CITY           SKY/WX    TMP DP  RH WIND       PRES   REMARKS
BROOKINGS      SUNNY     80  53  39 W18G29    29.82S
CHAMBERLAIN    NOT AVBL
HURON          SUNNY     82  54  37 W10       29.82S
MADISON        FAIR      77  50  38 SW22G30   29.86S
MITCHELL       MOSUNNY   83  54  36 SW16G23   29.85F
SIOUX FALLS    MOSUNNY   78  54  43 SW14G21   29.88F
WINNER         FAIR      81  54  39 SW14G23   29.88R
YANKTON        SUNNY     79  52  38 SW16      29.89S
$$

MNZ071-072-080-081-089-090-097-098-061800-
SOUTHWEST MINNESOTA

CITY           SKY/WX    TMP DP  RH WIND       PRES   REMARKS
FAIRMONT       SUNNY     81  45  28 SW22G32   29.88F
JACKSON        SUNNY     81  37  21 SW22G29   29.90S
LUVERNE        SUNNY     77  46  33 SW21G29   29.89F
MARSHALL       SUNNY     84  51  31 W33G41    29.77F
MONTEVIDEO     SUNNY     84  52  32 NW15G22   29.79S
REDWOOD FALLS  SUNNY     85  48  27 SW28G38   29.79F
TRACY          SUNNY     83  51  33 SW20G35   29.83F
WINDOM         SUNNY     82  46  28 SW20G29   29.87S
WORTHINGTON    SUNNY     79  50  36 SW26G33   29.88F
$$

IAZ001>003-012>014-020>022-031-032-NEZ013-014-SDZ071-061800-
NORTHWEST IOWA

CITY           SKY/WX    TMP DP  RH WIND       PRES   REMARKS
DENISON        SUNNY     79  46  31 SW16G23   29.96F
ESTHERVILLE    SUNNY     81  45  28 SW22G33   29.90F
SIOUX CITY     SUNNY     81  50  33 SW20G28   29.95S
SPENCER        SUNNY     83  43  24 SW24G35   29.91F
STORM LAKE     SUNNY     81  41  24 SW23G31   29.95F
$$

ABBREVIATIONS USED IN REMARKS
   TC - TEMPERATURE IN CELSIUS
  WCI - WIND CHILL INDEX
   HX - HEAT INDEX
  VSB - VISIBILITY





USA.gov is the U.S. government's official web portal to all federal, state and local government web resources and services.